Regional Weather Roundup
Issued by NWS

Home | Current Version | Previous Version | Text Only | Print | Product List | Glossary Off
Versions: 1 2 3 4 5 6 7 8 9 10 11 12 13 14 15 16 17 18 19 20 21 22 23 24 25 26 27 28

000
ASUS45 KTFX 211810
RWRMT
MONTANA REGIONAL WEATHER ROUNDUP
NATIONAL WEATHER SERVICE GREAT FALLS MT
1200 PM MDT SAT OCT 21 2017

NOTE: "FAIR" INDICATES FEW OR NO CLOUDS BELOW 12000 FEET WITH NO
SIGNIFICANT WEATHER AND/OR OBSTRUCTIONS TO VISIBILITY.

MTZ001>007-043-211900-
WEST OF THE DIVIDE

CITY           SKY/WX    TMP DP  RH WIND       PRES   REMARKS
KALISPELL      MOSUNNY   44  28  53 SW10      29.99R
MISSOULA       CLOUDY    44  26  49 SW10      30.02S
BUTTE          PTSUNNY   37  19  48 W10       30.02R WCI  30
MULLAN PASS    CLOUDY    26  24  92 VRB5      29.94R
ANACONDA         N/A     39  18  41 SW7       30.01R
DEER LODGE       N/A     43  18  36 SW8       30.01S
EUREKA           N/A     45  27  49 MISG      29.96R
HAMILTON         N/A     45  23  42 S10       30.03S
LIBBY            N/A     43  34  70 CALM      29.97S
PLAINS           N/A     45  33  62 CALM      30.01S
THOMPSON FALLS   N/A     43  37  79 CALM      30.06
$$

MTZ008-052>055-211900-
SOUTHWEST MONTANA

CITY           SKY/WX    TMP DP  RH WIND       PRES   REMARKS
BOZEMAN        CLOUDY    44  23  43 NW10      30.00R
DILLON         CLOUDY    41  16  36 SW18G24   30.03R
W YELLOWSTONE  CLOUDY    27  25  93 SW15G22   30.08R FOG     WCI  15
ENNIS          CLOUDY    41  18  38 S12G18    30.07S
THREE FORKS      N/A     47  15  27 W12       29.98S
TWIN BRIDGES     N/A     44  18  35 S12       30.01S
$$

MTZ009-010-012-014-046-048-049-054-211900-
EAST SLOPES AND CENTRAL MONTANA

CITY           SKY/WX    TMP DP  RH WIND       PRES   REMARKS
CUT BANK       SUNNY     45  22  40 W38G46    29.81S
GREAT FALLS    SUNNY     48  21  34 SW26G36   29.87R
MALMSTROM AFB  SUNNY     47  22  36 SW29G36   29.88R
HELENA         PTSUNNY   46  21  37 W16G25    29.97S
BOWMANS CRNR     N/A     42  20  42 SW23G29   29.88R
CHOTEAU          N/A     48  16  27 W21G29    29.86R
FAIRFIELD        N/A     47  17  30 SW30G40   29.85R
POWER            N/A     46  23  39 SW23G30   29.85R
RAYNESFORD       N/A     45  19  35 W23G37    29.88S
ULM              N/A     47  22  36 SW25G31   29.90R
$$

MTZ011-013-016-021-045-047-050-051-211900-
NORTH CENTRAL MONTANA

CITY           SKY/WX    TMP DP  RH WIND       PRES   REMARKS
HAVRE          SUNNY     51  31  46 W25G33    29.80R
LEWISTOWN      SUNNY     48  19  31 W25G32    29.87R
N BAR RANCH      N/A     46  18  31 W13G28    29.88R
CHINOOK          N/A     52  32  46 W21G28    29.79S
DENTON           N/A     48  20  33 W24G32    29.82R
GEYSER           N/A     46  18  32 W30G41    29.85S
GRASS RANGE      N/A     48  19  31 W21G33    29.82S
JUDITH GAP       N/A     46  16  30 W23G33    29.87S
WINIFRED         N/A     48  21  34 W17G25    29.84R
$$

MTZ017>020-022>027-061-062-211900-
NORTHEAST MONTANA

CITY           SKY/WX    TMP DP  RH WIND       PRES   REMARKS
GLASGOW        SUNNY     50  32  50 NW29G41   29.72R
JORDAN           N/A     54  26  34 W28G37    29.78R
SIDNEY         CLOUDY    49  37  63 NW23G31   29.67R
WOLF POINT     PTSUNNY   51  35  54 W29G39    29.70S
MALTA          SUNNY     50  32  50 W24G33    29.77R
PLENTYWOOD       N/A     45  36  70 W33G51    29.57S
POPLAR           N/A     48  34  57 W31G38    29.66F
SCOBEY           N/A     47  32  56 W23       29.65
$$

MTZ028>42-056>058-211900-
SOUTHCENTRAL AND SOUTHEAST MONTANA

CITY           SKY/WX    TMP DP  RH WIND       PRES   REMARKS
BAKER          CLOUDY    49  31  49 NW25G47   29.75S
BILLINGS       MOSUNNY   53  19  26 W28G38    29.90S
LIVINGSTON     CLOUDY    43  18  36 W26G33    29.95S
MILES CITY     SUNNY     54  28  36 W35G44    29.79S
BIG TIMBER     SUNNY     46  16  29 W38G51    29.92F
EKALAKA          N/A     49  24  37 W26       29.77
FORSYTH          N/A     52  21  30 W23G36    29.83R
HARLOWTON        N/A     46  19  34 W32G39    29.89R
LAUREL           N/A     54  16  22 W31       29.91S
$$

REGIONAL REPORTS...DAKOTAS

CITY           SKY/WX    TMP DP  RH WIND       PRES   REMARKS
WILLISTON      CLOUDY    48  37  65 W23G32    29.61R
MINOT          CLOUDY    53  39  59 W24G30    29.51R
DICKINSON      CLOUDY    47  36  65 W26G40    29.65R
BEACH          CLOUDY    46  34  61 NW36G41   29.73R
CROSBY         CLOUDY    45  37  76 W28G36    29.54R
TIOGA          CLOUDY    45  39  81 W26G32    29.58R
WATFORD CITY   CLOUDY    46  37  71 W23G32    29.62R
BISMARCK       LGT RAIN  50  42  74 W14G21    29.64R
GRAND FORKS    MOSUNNY   63  43  48 W12       29.47S
FARGO          CLOUDY    60  42  51 W10       29.50S
BUFFALO SD       N/A     53  29  39 NW43G52   29.70S
RAPID CITY     CLOUDY    55  21  26 NW28G35   29.82F
$$

REGIONAL REPORTS...WYOMING/IDAHO/WASHINGTON

CITY           SKY/WX    TMP DP  RH WIND       PRES   REMARKS
GILLETTE       SUNNY     50  15  24 NW29G39   29.90R
SHERIDAN       SUNNY     53  14  21 NW26G33   29.90S
BUFFALO WY     MOSUNNY   50   9  19 NW20G28   29.92R
CODY           SUNNY     43  18  36 W12G21    29.99R
YELLOWSTONE LA   N/A     24  21  88 MISG      30.06R
IDAHO FALLS    PTSUNNY   40  28  62 SW21G33   30.16R
SALMON         CLOUDY    44  24  45 S12       30.07F
BOISE          CLOUDY    46  33  60 SE14      30.17R
SPOKANE        CLOUDY    42  35  76 S7        29.97S
$$

REGIONAL REPORTS...ALBERTA

CITY           SKY/WX    TMP DP  RH WIND       PRES   REMARKS
EDMONTON       SUNNY     43  32  65 NW3       29.69R
CALGARY        MOSUNNY   46  16  29 W16       29.70S
LETHBRIDGE     MOSUNNY   50  25  37 W26G37    29.77S
MEDICINE HAT   MOSUNNY   50  34  53 W14G21    29.74R
$$

REGIONAL REPORTS...SASKATCHEWAN

CITY           SKY/WX    TMP DP  RH WIND       PRES   REMARKS
SWIFT CURRENT  PTSUNNY   41  36  81 NW24      29.64R
REGINA         LGT RAIN  43  37  81 W24G33    29.49R
SASKATOON      LGT RAIN  43  39  87 NW21G28   29.54R
$$




USA.gov is the U.S. government's official web portal to all federal, state and local government web resources and services.